Wind_Speed
14 14 13 14 14 14 14 13 13 12 11 10 9 9 10 10 11 11 12 13 14 14 14 14 14 14 13 13 13 13 11 10 9 10 10 12 13 14 16 17 16 16 15
14 14 15 15 15 15 14 14 13 12 10 9 8 8 8 9 10 10 12 13 14 14 15 15 15 15 14 14 14 14 13 11 11 11 11 12 14 15 16 16 16 16 15
15 15 16 16 16 16 15 15 13 12 10 9 7 7 7 7 9 10 11 13 14 15 16 16 16 16 15 15 15 15 14 13 13 13 13 14 14 15 15 15 15 16 15
15 16 16 17 17 16 15 15 13 12 11 9 7 6 6 6 7 9 11 12 14 14 15 16 17 17 16 16 16 16 15 14 14 14 14 15 15 15 15 14 14 15 14
16 16 17 17 17 17 16 15 13 12 11 9 7 5 4 4 5 7 9 11 13 14 15 16 17 17 17 17 17 17 17 15 16 15 15 16 16 15 15 14 14 14 14
16 17 18 18 18 18 17 15 14 12 11 9 8 6 4 3 3 5 7 10 12 14 15 16 17 18 19 18 18 18 18 17 17 17 17 17 17 16 15 14 14 14 14
16 18 19 19 19 18 17 16 14 13 12 10 9 7 5 3 2 4 6 8 11 13 15 16 17 18 19 19 19 18 18 18 18 18 18 18 18 17 16 15 15 15 14
17 18 19 20 20 18 17 17 15 14 13 11 9 8 6 3 1 1 4 7 10 12 14 15 17 18 19 19 20 19 19 19 19 19 19 19 19 18 17 17 16 16 15
18 19 19 20 20 19 18 18 16 15 14 12 11 10 8 5 3 1 2 4 8 10 12 14 16 18 19 19 20 20 19 19 21 21 20 20 19 19 18 18 17 17 16
18 19 20 20 20 20 19 19 17 16 15 13 12 11 9 7 5 2 1 2 6 8 11 13 15 17 19 20 20 21 21 20 21 22 22 22 21 20 19 19 19 19 18
17 18 19 20 20 20 20 20 19 18 16 14 13 12 11 9 7 4 2 1 3 6 9 11 14 17 19 19 21 21 21 22 22 22 22 23 22 22 21 21 21 21 20
17 18 19 20 20 20 20 21 20 19 18 16 14 13 11 10 8 6 3 1 1 4 7 9 12 15 17 19 20 21 22 23 23 23 23 23 23 23 23 23 22 22 21
16 17 18 19 19 19 20 20 20 20 19 17 15 14 13 11 9 7 4 2 2 3 5 8 11 13 16 18 20 21 22 23 23 24 24 24 24 24 24 24 24 23 23
16 16 17 18 19 19 19 20 20 20 20 19 17 16 14 13 11 9 7 4 3 3 4 6 9 12 15 17 19 20 22 23 23 24 24 24 24 25 24 25 25 25 24
15 16 16 17 18 18 19 19 19 20 20 19 18 17 16 15 13 11 9 7 6 5 5 5 7 10 13 16 18 19 21 23 24 25 25 26 26 26 25 25 26 25 25
14 15 16 17 17 18 18 19 19 19 19 19 18 18 17 16 14 12 11 10 8 7 6 7 8 10 13 15 17 19 21 22 23 25 26 26 26 27 27 26 27 27 27
13 14 15 16 17 17 18 19 19 19 19 19 18 18 17 17 15 14 12 11 11 10 8 8 10 11 12 15 17 18 20 22 24 25 26 27 28 28 28 28 28 28 28
12 13 15 15 16 17 18 18 18 19 19 19 19 19 18 18 17 15 14 14 13 12 11 10 11 12 13 15 17 18 20 22 24 25 26 27 28 29 30 30 30 30 30
12 13 14 15 16 17 18 18 19 19 19 19 20 20 20 19 18 17 17 16 16 15 14 13 12 13 14 15 17 19 20 22 24 25 27 28 29 30 31 32 32 32 32
13 14 15 15 16 17 18 18 19 20 20 20 21 21 21 21 20 20 19 19 18 17 17 16 15 15 16 17 19 20 21 22 24 26 27 29 30 31 32 33 33 34 34
15 15 16 16 17 17 18 19 20 21 21 22 23 23 23 23 23 23 22 22 21 20 19 18 18 17 18 19 20 22 23 24 25 27 28 29 30 32 33 35 35 36 36
17 17 17 18 18 19 20 21 22 23 23 24 25 25 25 25 25 25 25 25 24 23 22 21 21 20 21 21 22 23 25 26 28 29 30 31 32 33 34 35 36 36 37
19 19 20 20 21 22 23 23 24 24 26 27 27 28 28 28 28 28 28 28 27 26 26 25 24 24 25 25 25 26 27 28 29 30 32 33 34 36 37 38 38 38 38
21 22 23 23 24 25 25 26 27 27 29 30 31 31 31 31 32 32 31 31 30 30 29 29 28 28 28 29 29 30 30 31 31 33 34 35 37 38 39 40 40 40 40
23 24 25 26 26 27 28 29 30 31 32 33 35 35 35 35 35 35 35 34 33 33 33 32 31 31 32 32 32 33 34 34 35 35 36 37 39 40 41 41 42 42 42
26 27 28 29 29 30 31 32 33 34 35 37 38 38 39 39 39 39 39 38 37 37 37 37 36 35 35 36 36 37 37 38 38 38 39 40 41 42 42 42 43 44 44
Wind_Direction
351 351 349 348 346 343 339 336 330 321 311 303 294 280 269 259 250 241 233 227 224 220 214 209 206 202 198 195 192 190 183 179 171 174 167 165 160 157 161 161 165 165 165
355 355 355 352 349 346 344 341 337 331 322 313 301 285 273 261 248 237 230 224 222 219 214 207 204 201 198 196 193 191 187 181 177 175 163 160 157 155 156 161 166 167 168
358 357 356 354 352 350 347 345 343 340 335 325 312 296 284 266 247 236 228 221 218 215 211 206 203 200 199 195 194 192 190 184 180 177 171 165 162 159 160 164 167 169 172
360 359 358 357 356 354 351 351 350 347 344 337 327 309 290 267 247 236 227 219 214 211 209 207 204 199 197 195 195 196 192 186 184 181 180 174 171 169 168 168 170 173 176
2 2 2 2 1 359 358 358 357 357 356 353 346 332 305 273 245 232 223 216 211 209 208 208 205 201 198 198 197 197 194 191 189 187 186 182 179 176 175 175 177 181 184
5 6 6 6 6 7 8 7 7 6 6 5 1 355 339 310 251 229 220 214 211 208 208 207 206 203 201 202 200 199 197 196 194 191 190 187 185 184 184 185 184 186 187
11 10 10 10 11 12 14 14 13 11 12 11 10 10 6 351 279 224 217 213 210 209 209 208 206 205 203 202 202 200 198 198 197 195 194 194 191 190 193 193 191 191 191
17 17 15 14 15 16 17 18 18 18 16 15 16 17 19 21 10 201 204 208 206 208 209 209 208 208 207 203 204 203 202 202 201 200 199 200 197 197 198 199 199 199 198
20 20 19 18 19 20 20 20 20 20 19 21 23 24 27 33 41 87 182 200 203 206 209 211 211 211 210 206 207 206 204 204 204 204 203 204 204 203 202 203 202 201 202
21 21 21 21 22 23 24 23 22 22 23 27 30 30 30 33 38 51 117 188 201 208 211 213 212 213 211 210 210 210 209 208 208 208 209 208 208 208 208 208 208 208 209
23 23 22 24 24 25 26 27 26 25 25 28 30 31 32 34 36 36 50 156 201 210 214 215 215 214 213 214 213 212 212 212 212 212 213 213 213 213 213 214 214 214 215
23 23 22 23 24 26 27 28 29 27 28 29 30 29 28 28 27 29 41 52 231 225 224 221 218 217 216 215 214 214 215 215 214 213 215 216 217 217 216 218 218 219 220
22 22 22 22 23 25 26 27 27 27 28 28 27 25 24 22 19 15 12 0 319 263 235 227 226 222 217 217 217 217 217 218 217 217 217 218 220 220 220 220 221 223 226
20 21 22 23 24 24 25 25 25 24 24 25 24 22 19 17 15 14 7 353 329 296 262 238 230 225 221 220 221 222 222 222 221 221 221 221 222 225 225 224 225 227 228
18 20 21 22 23 23 23 23 22 21 20 21 21 20 18 15 11 7 3 355 337 311 283 255 241 235 229 227 226 227 227 227 226 226 225 225 226 229 230 230 230 231 231
13 15 17 18 19 19 19 19 19 18 17 17 16 16 14 12 10 5 359 353 344 324 295 271 261 249 240 235 234 233 231 231 231 232 231 228 229 231 232 233 233 235 235
6 8 10 12 14 14 13 13 14 14 13 12 11 9 7 5 3 358 352 345 338 329 312 285 271 262 251 245 243 239 236 236 237 236 237 235 234 235 235 236 236 236 237
357 359 2 4 5 5 5 6 5 6 7 6 5 3 0 358 355 351 346 340 334 326 316 298 279 269 261 252 248 246 244 240 240 239 240 240 239 239 238 238 239 238 239
345 348 352 354 356 356 358 359 359 359 359 358 357 357 355 352 348 343 339 335 330 324 315 304 288 274 267 259 253 251 249 245 244 243 244 244 243 242 242 242 242 242 242
333 335 339 342 345 347 349 350 350 351 351 351 351 349 346 344 342 337 333 330 326 321 314 305 293 281 274 267 261 256 253 250 249 248 247 247 247 247 246 245 245 245 244
323 325 327 331 334 337 339 341 341 342 342 342 342 341 339 336 334 332 328 324 321 317 312 305 297 286 280 274 268 262 257 255 254 253 251 250 250 250 249 248 248 248 247
317 317 319 322 324 326 328 330 332 333 334 334 333 333 331 328 327 326 324 320 316 312 308 302 295 288 283 278 274 267 263 259 257 256 255 253 253 252 251 250 250 250 249
311 311 312 314 315 317 319 322 323 325 326 326 326 326 325 323 321 321 319 315 312 308 304 300 294 287 283 279 275 272 268 265 262 261 259 258 256 255 253 251 251 251 251
307 307 308 309 310 311 313 315 317 318 319 320 320 320 319 318 317 316 315 312 308 304 300 297 292 287 283 280 277 275 273 270 268 265 263 262 259 257 256 255 254 252 251
304 305 306 307 307 308 309 310 311 313 314 316 316 316 315 315 313 312 311 309 306 302 298 295 292 286 283 280 277 276 274 273 271 269 267 265 263 260 258 257 255 254 254
302 303 304 305 305 306 307 308 309 310 311 312 313 312 311 311 311 309 308 306 303 300 298 295 292 287 284 281 278 276 275 274 272 271 270 268 266 263 260 257 256 255 255
Height
5859 5856 5854 5851 5849 5846 5844 5841 5839 5837 5836 5835 5834 5834 5835 5835 5837 5838 5840 5842 5844 5846 5849 5852 5854 5857 5859 5862 5864 5866 5868 5869 5870 5871 5871 5872 5873 5874 5878 5882 5887 5890 5894
5858 5856 5853 5850 5847 5845 5842 5840 5837 5835 5834 5832 5832 5832 5832 5832 5834 5835 5837 5839 5841 5844 5846 5849 5852 5855 5858 5860 5862 5865 5867 5869 5871 5871 5872 5874 5876 5878 5881 5885 5888 5892 5894
5858 5855 5852 5849 5846 5843 5841 5838 5835 5833 5832 5830 5829 5829 5829 5830 5831 5832 5834 5836 5839 5841 5844 5847 5850 5853 5856 5859 5861 5864 5866 5868 5870 5872 5874 5876 5879 5881 5884 5887 5890 5892 5895
5858 5855 5852 5849 5845 5842 5839 5836 5834 5832 5830 5828 5828 5827 5827 5827 5828 5830 5831 5833 5836 5839 5842 5845 5848 5851 5854 5857 5860 5862 5865 5867 5870 5872 5875 5877 5880 5882 5885 5888 5890 5893 5896
5857 5854 5851 5848 5845 5841 5838 5835 5832 5830 5829 5827 5826 5825 5825 5825 5826 5827 5829 5831 5834 5837 5840 5843 5846 5849 5852 5855 5858 5861 5864 5866 5869 5872 5875 5878 5880 5883 5885 5888 5891 5893 5896
5857 5854 5851 5848 5844 5841 5838 5835 5832 5830 5828 5826 5825 5824 5824 5824 5824 5826 5827 5829 5832 5834 5837 5840 5844 5847 5850 5853 5856 5859 5862 5865 5868 5871 5874 5877 5880 5883 5885 5888 5891 5893 5895
5857 5854 5851 5848 5844 5841 5838 5835 5833 5830 5828 5826 5825 5824 5824 5823 5824 5825 5826 5828 5830 5833 5835 5838 5841 5845 5848 5851 5854 5858 5861 5864 5867 5870 5873 5876 5879 5882 5885 5888 5890 5893 5895
5858 5855 5852 5849 5845 5842 5839 5836 5833 5831 5829 5827 5826 5825 5824 5824 5823 5824 5825 5827 5829 5831 5834 5837 5839 5843 5846 5849 5853 5856 5859 5862 5865 5868 5871 5874 5877 5880 5883 5886 5889 5891 5894
5859 5856 5853 5850 5846 5843 5840 5837 5834 5832 5830 5828 5827 5826 5825 5824 5824 5825 5825 5827 5828 5830 5833 5835 5838 5841 5844 5847 5850 5854 5857 5860 5863 5866 5870 5873 5876 5879 5882 5884 5887 5890 5892
5860 5857 5854 5851 5848 5844 5841 5838 5835 5833 5831 5829 5828 5827 5826 5825 5825 5825 5826 5827 5828 5829 5831 5833 5836 5839 5841 5845 5848 5851 5855 5858 5861 5864 5868 5871 5874 5877 5880 5882 5885 5888 5890
5861 5858 5855 5852 5849 5846 5843 5840 5837 5834 5832 5830 5829 5828 5827 5826 5826 5826 5826 5827 5828 5829 5830 5832 5834 5837 5839 5842 5846 5849 5852 5855 5858 5862 5865 5868 5871 5874 5877 5880 5882 5885 5888
5862 5860 5857 5854 5851 5848 5845 5842 5839 5836 5834 5832 5830 5829 5828 5828 5827 5827 5827 5827 5828 5829 5830 5831 5833 5835 5837 5840 5843 5846 5849 5852 5855 5858 5862 5865 5868 5871 5874 5876 5879 5882 5884
5864 5861 5858 5855 5852 5849 5847 5844 5841 5838 5836 5834 5832 5831 5829 5829 5828 5828 5828 5828 5828 5828 5829 5830 5831 5833 5835 5838 5840 5843 5846 5849 5852 5855 5858 5861 5864 5867 5870 5873 5875 5878 5881
5865 5862 5859 5857 5854 5851 5848 5845 5843 5840 5838 5836 5834 5832 5831 5830 5829 5828 5828 5828 5828 5828 5828 5829 5830 5832 5834 5836 5838 5841 5844 5846 5849 5852 5855 5858 5861 5863 5866 5869 5871 5874 5876
5865 5863 5860 5858 5855 5852 5850 5847 5844 5842 5839 5837 5835 5833 5832 5830 5829 5828 5828 5828 5828 5828 5828 5828 5829 5830 5832 5834 5836 5838 5840 5843 5845 5848 5851 5853 5856 5859 5862 5864 5866 5869 5871
5866 5864 5861 5859 5856 5854 5851 5848 5846 5843 5840 5838 5836 5834 5832 5831 5829 5828 5827 5827 5827 5827 5827 5827 5828 5829 5830 5831 5833 5835 5837 5839 5841 5844 5846 5849 5851 5854 5857 5859 5862 5864 5866
5866 5864 5862 5859 5857 5854 5852 5849 5846 5844 5841 5839 5836 5834 5832 5831 5829 5828 5827 5826 5825 5825 5825 5825 5825 5826 5827 5828 5830 5831 5833 5835 5837 5839 5841 5844 5846 5849 5851 5853 5856 5858 5860
5866 5864 5861 5859 5857 5854 5852 5849 5846 5844 5841 5839 5836 5834 5832 5830 5828 5826 5825 5824 5823 5823 5823 5823 5823 5823 5823 5824 5826 5827 5829 5830 5832 5834 5836 5838 5840 5842 5844 5847 5849 5851 5854
5865 5863 5861 5859 5856 5854 5851 5849 5846 5843 5841 5838 5835 5833 5830 5828 5826 5824 5823 5822 5820 5819 5819 5819 5819 5819 5819 5820 5821 5822 5823 5825 5826 5828 5830 5831 5833 5835 5837 5840 5842 5844 5846
5863 5861 5860 5857 5855 5852 5850 5847 5845 5842 5839 5836 5834 5831 5828 5826 5823 5821 5819 5818 5816 5815 5814 5814 5814 5814 5814 5815 5815 5816 5817 5819 5820 5821 5823 5824 5826 5828 5830 5832 5834 5836 5838
5861 5859 5857 5855 5853 5851 5848 5845 5843 5840 5837 5834 5831 5828 5825 5822 5820 5817 5815 5813 5812 5810 5809 5808 5808 5808 5808 5809 5809 5810 5811 5812 5813 5814 5815 5817 5818 5820 5821 5823 5825 5827 5830
5858 5856 5854 5852 5850 5848 5845 5843 5840 5837 5834 5831 5828 5825 5822 5818 5815 5812 5810 5807 5805 5804 5803 5802 5801 5801 5801 5801 5801 5802 5803 5804 5805 5806 5807 5808 5809 5811 5812 5814 5816 5818 5820
5854 5852 5850 5848 5846 5844 5841 5838 5836 5833 5830 5826 5823 5820 5817 5813 5810 5807 5803 5800 5798 5795 5794 5793 5793 5792 5792 5793 5793 5793 5794 5795 5796 5797 5797 5799 5800 5801 5802 5804 5806 5808 5810
5850 5848 5846 5844 5841 5839 5836 5833 5830 5827 5824 5820 5817 5814 5810 5806 5802 5799 5796 5793 5790 5787 5784 5783 5783 5782 5782 5782 5782 5783 5783 5784 5786 5786 5786 5788 5789 5790 5792 5793 5795 5797 5799
5845 5843 5840 5838 5836 5833 5830 5827 5824 5821 5817 5814 5810 5805 5801 5798 5794 5790 5787 5783 5780 5777 5774 5772 5771 5771 5771 5771 5771 5772 5772 5773 5774 5775 5775 5776 5777 5778 5780 5781 5783 5784 5786
5839 5837 5834 5831 5829 5826 5823 5820 5817 5813 5810 5806 5802 5797 5792 5788 5783 5779 5775 5772 5769 5766 5763 5761 5759 5759 5758 5759 5759 5759 5760 5760 5761 5762 5763 5763 5763 5764 5766 5769 5770 5771 5773